Regional Weather Roundup
Issued by NWS

Home | Current Version | Previous Version | Graphics & Text | Print | Product List | Glossary On
Versions: 1 2 3 4 5 6 7 8 9 10 11 12 13 14 15 16 17 18 19 20 21 22 23 24 25 26 27 28 29 30 31 32 33 34 35 36 37 38 39 40 41 42 43 44 45 46 47 48 49 50
000
ASUS43 KMPX 252310
RWRMN
WEATHER ROUNDUP FOR MINNESOTA
NATIONAL WEATHER SERVICE TWIN CITIES/CHANHASSEN MN
500 PM CST SAT FEB 25 2017


NOTE: "FAIR" INDICATES FEW OR NO CLOUDS BELOW 12,000 FEET WITH NO
SIGNIFICANT WEATHER AND/OR OBSTRUCTIONS TO VISIBILITY. N/A MEANS
CURRENT SKY AND/OR WEATHER CONDITIONS ARE NOT AVAILABLE.

MNZ060>063-068>070-260000-
   Twin Cities Metro

CITY           SKY/WX    TMP DP  RH WIND       PRES   REMARKS
TWIN CITIES    CLOUDY    32  17  54 W9        29.89S WCI  24
ST PAUL        CLOUDY    32  17  54 W14       29.90S WCI  22
CRYSTAL        CLOUDY    31  16  54 SW10      29.86F WCI  22
BLAINE         CLOUDY    34  18  51 W13G18    29.87S WCI  25
LAKEVILLE      CLOUDY    28  19  69 W7        29.89F WCI  21
EDEN PRAIRIE   CLOUDY    32  17  54 SW10      29.87F WCI  24
SOUTH ST PAUL  CLOUDY    32  18  56 W12       29.89F WCI  23
LAKE ELMO      CLOUDY    32  19  59 W14       29.89S WCI  22
$$
MNZ001>005-007-008-013>017-022>024-027-028-260000-
   Northwest Minnesota

CITY           SKY/WX    TMP DP  RH WIND       PRES   REMARKS
BEMIDJI        FLURRIES  28  21  76 W12       29.72F WCI  17
HALLOCK        CLEAR     19  16  86 N12       29.76S WCI   7
ROSEAU         FLURRIES  21  16  79 W9        29.72S WCI  11
WARROAD        LGT SNOW  21  18  86 W14G20    29.70F WCI   8
THIEF RVR FALL   N/A    N/A N/A N/A MISG        N/A
CROOKSTON      CLOUDY    28  21  74 N14       29.77S WCI  17
FOSSTON        CLOUDY    28  19  69 W12       29.74F WCI  18
DETROIT LAKES  MOCLDY    30  25  80 W7        29.76F WCI  23
MOORHEAD       DRIZZLE   28  25  86 NW7       29.79F WCI  21
PARK RAPIDS    CLOUDY    29  19  66 W13       29.74S WCI  19
MAHNOMEN       CLOUDY    28  22  78 W13       29.75S WCI  18
$$
MNZ006-009>011-018-025>026-260000-
   North Central Minnesota

CITY           SKY/WX    TMP DP  RH WIND       PRES   REMARKS
BAUDETTE       CLOUDY    22  15  75 W16G24    29.69S WCI   8
FLAG ISLAND    CLOUDY    21  16  79 SW15      29.66F WCI   8
INTL FALLS     FLURRIES  21  15  78 SW6       29.70F WCI  13
WASKISH        MOCLDY    23  18  80 W9        29.71F WCI  13
BIG FORK       MOCLDY    27  19  74 SW10      29.71S WCI  17
LONGVILLE      CLOUDY    28  19  69 SW7       29.74F WCI  21
GRAND RAPIDS   FLURRIES  27  17  66 W7        29.74F WCI  19
CRANE LAKE     LGT SNOW  19  12  73 SW5       29.74S WCI  13
ORR            CLOUDY    21  12  68 CALM      29.69F
COOK           MOCLDY    23  12  63 SW8       29.71F WCI  14
WALKER         CLOUDY    28  20  72 SW9       29.73F WCI  19
$$
MNZ012-019>021-037-260000-
   Northeast Minnesota

CITY           SKY/WX    TMP DP  RH WIND       PRES   REMARKS
DULUTH         PTCLDY    26  15  63 W16       29.75S WCI  14
ELY            CLOUDY    21  10  63 W9G16     29.71F WCI  11
HIBBING        CLOUDY    24  13  62 VRB7      29.72F WCI  16
EVELETH        PTCLDY    24   8  50 SW8       29.73F WCI  15
DULUTH HARBOR  CLOUDY    30  18  59 W15       29.81S WCI  19
TWO HARBORS    PTCLDY    28  16  59 W8G18     29.74F WCI  20
SILVER BAY     CLOUDY    25  12  58 SW6       29.74S WCI  18
GRAND MARAIS     N/A     28   7  41 VRB6G17   29.74  WCI  22
G MARAIS ARPRT CLEAR     19   0  42 W9G18     29.67R WCI   9
$$
MNZ029>031-032-039>041-046>048-054>057-064-260000-
   West Central Minnesota

CITY           SKY/WX    TMP DP  RH WIND       PRES   REMARKS
FERGUS FALLS   LGT SNOW  28  28 100 NW8       29.82F VSB 1   WCI  20
WHEATON        CLOUDY    36  21  55 S6        29.79F
MORRIS         CLOUDY    34  21  60 SW8       29.78F WCI  27
ALEXANDRIA     CLOUDY    32  20  61 SW12      29.78F WCI  23
ELBOW LAKE     LGT SNOW  29  28  97 W3        29.78F
WADENA         LGT SNOW  27  25  93 SW8       29.76F WCI  18
GLENWOOD       CLOUDY    32  21  64 SW16      29.79F WCI  21
APPLETON       CLOUDY    36  19  51 SW10G17   29.81F
BENSON         CLOUDY    36  18  48 W10       29.82F
ORTONVILLE       N/A     34  19  55 CALM      29.79F
MADISON        MOSUNNY   37  21  52 SW14      29.82F
WILLMAR        MOCLDY    34  25  69 SW16      29.84F WCI  23
$$
MNZ033>034-036-042>043-049>051-058-059-260000-
   Central Minnesota

CITY           SKY/WX    TMP DP  RH WIND       PRES   REMARKS
ST CLOUD       CLOUDY    31  20  63 SW13      29.82F WCI  21
SAUK CENTRE    CLOUDY    32  20  60 SW16      29.79F WCI  21
PAYNESVILLE    MOCLDY    33  20  60 SW12G17   29.82F WCI  24
AITKIN         CLOUDY    30  18  59 SW8       29.76F WCI  23
PINE RIVER     CLOUDY    28  21  74 SW6       29.80S WCI  22
BRAINERD       LGT SNOW  28  22  78 SW14      29.78F WCI  17
STAPLES        LGT SNOW  27  25  93 SW5       29.77F WCI  21
LONG PRAIRIE   CLOUDY    30  23  74 S10       29.78F WCI  21
LITTLE FALLS   CLOUDY    32  21  64 SW8       29.80F WCI  25
LITCHFIELD     MOCLDY    34  21  60 SW6       29.84F WCI  29
BUFFALO        CLOUDY    32  19  60 SW8       29.86F WCI  24
MAPLE LAKE     CLOUDY    33  22  65 SW9G16    29.85F WCI  25
HUTCHINSON     CLOUDY    33  22  64 SW12      29.87S WCI  25
$$
MNZ037-044-045-052-053-260000-
   East Central Minnesota

CITY           SKY/WX    TMP DP  RH WIND       PRES   REMARKS
PRINCETON      CLOUDY    34  18  51 SW9       29.84F WCI  26
MORA           MOCLDY    32  19  59 SW10      29.84S WCI  24
CAMBRIDGE      CLOUDY    34  19  55 SW10      29.82F WCI  26
RUSH CITY      CLOUDY    30  16  55 SW10      29.84S WCI  21
MOOSE LAKE     CLOUDY    30  18  59 W9        29.77S WCI  22
HINCKLEY       MOCLDY    32  19  59 SW9       29.81F WCI  24
CLOQUET        CLOUDY    27  14  59 W8        29.76F WCI  18
MCGREGOR       CLOUDY    30  19  64 W7        29.77F WCI  23
$$
MNZ071>073-080-081-089-090-097-098-260000-
   Southwest Minnesota

CITY           SKY/WX    TMP DP  RH WIND       PRES   REMARKS
MONTEVIDEO     MOSUNNY   36  19  51 W15       29.84F
GRANITE FALLS  CLOUDY    33  22  63 S17       29.86F WCI  22
CANBY          MOSUNNY   34  20  56 SW12      29.84F WCI  25
MARSHALL       PTSUNNY   31  20  63 SW14      29.85F WCI  21
REDWOOD FALLS  MOCLDY    31  18  58 SW17      29.87F WCI  19
OLIVIA         PTCLDY    34  23  64 SW17      29.85F WCI  23
PIPESTONE      MOSUNNY   27  16  63 SW17      29.84F WCI  14
WINDOM         CLOUDY    27  18  69 SW14      29.88F WCI  15
WORTHINGTON    CLOUDY    26  17  68 S18       29.88F WCI  13
JACKSON        CLOUDY    27  19  74 SW12      29.91F WCI  16
TRACY          CLOUDY    30  20  65 SW15G21   29.86F WCI  19
SLAYTON        CLOUDY    26  18  72 S18       29.86F WCI  12
$$
MNZ065>067-074>077-082>085-091>093-260000-
   South Central Minnesota

CITY           SKY/WX    TMP DP  RH WIND       PRES   REMARKS
NEW ULM        CLEAR     28  18  64 SW13      29.90S WCI  18
ST JAMES       CLOUDY    27  19  74 S12       29.92F WCI  16
FAIRMONT       CLOUDY    25  18  74 SW12      29.93F WCI  14
GLENCOE        CLOUDY    32  26  77 SW9G16    29.87F WCI  25
FARIBAULT      CLOUDY    25  18  74 S10G16    29.93S WCI  15
OWATONNA       CLOUDY    23  16  74 S13       29.92F WCI  11
WASECA         MOCLDY    23  18  80 SW13      29.94F WCI  11
ALBERT LEA     CLEAR     23  16  74 SW10      29.94F WCI  12
$$
MNZ078>079-086>088-094>096-260000-
   Southeast Minnesota

CITY           SKY/WX    TMP DP  RH WIND       PRES   REMARKS
ROCHESTER      MOCLDY    20  14  77 SW13      29.93S WCI   7
RED WING       CLOUDY    28  16  59 SW12G17   29.91R WCI  18
STANTON        CLOUDY    28  18  68 SW12      29.91R WCI  17
WINONA         CLEAR     30  16  55 SW9       29.96S WCI  22
AUSTIN         CLEAR     21  12  68 SW10      29.95F WCI  10
PRESTON        CLEAR     21  13  70 W10       29.95S WCI  10
$$
ABBREVIATIONS USED IN REMARKS
   TC - TEMPERATURES IN CELSIUS
  WCI - WIND CHILL INDEX
   HX - HEAT INDEX
  VSB - VISIBILITY
$$



USA.gov is the U.S. government's official web portal to all federal, state and local government web resources and services.